Change the Weather History Date:

Thursday, March 20, 2014

  Actual Average Record
Temperature  
Mean Temperature 45 °F 50 °F  
Max Temperature 60 °F 61 °F 85 °F (1921)
Min Temperature 29 °F 38 °F 16 °F (1914)
Degree Days  
Heating Degree Days 20 16  
Month to date heating degree days 449 369  
Since 1 July heating degree days 4058 3567  
Cooling Degree Days 0 0  
Month to date cooling degree days 0 0  
Year to date cooling degree days 0 0  
Moisture  
Dew Point 28 °F    
Average Humidity 58    
Maximum Humidity 92    
Minimum Humidity 24    
Precipitation  
Precipitation 0.00 in 0.14 in 1.78 in (1980)
Month to date precipitation 2.93 2.77  
Year to date precipitation 10.10 10.34  
Snow  
Snow 0.00 in 0.00 in 6.00 in (1914)
Month to date snowfall 4.8 0.7  
Since 1 July snowfall 10.1 8.5  
Snow Depth 0.00 in    
Sea Level Pressure  
Sea Level Pressure 30.15 in    
Wind  
Wind Speed 3 mph (SSW)    
Max Wind Speed 14 mph    
Max Gust Speed 18 mph    
Visibility 7 miles    
Events      
T = Trace of Precipitation, MM = Missing Value Source: NWS Daily Summary

Daily Weather History Graph

Daily Weather History Graph

Search for Another Location

Airport or City:

Trip Planner

Search our weather history database for the weather conditions in past years. The results will help you decide how hot, cold, wet, or windy it might be!

Date:

Astronomy

Mar. 20, 2014 Rise Set
Actual Time 6:49 AM CDT 6:57 PM CDT
Civil Twilight 6:23 AM CDT 7:23 PM CDT
Nautical Twilight 5:53 AM CDT 7:53 PM CDT
Astronomical Twilight 5:22 AM CDT 8:24 PM CDT
Moon 11:10 PM CDT (3/20) 9:00 AM CDT (3/20)
Length of Visible Light 13h 00m
Length of Day
12h 08m
Waning Gibbous, 84% of the Moon is Illuminated
Mar 20
Waning Gibbous
Mar 23
Last Quarter
Mar 30
New
Apr 7
First Quarter
Apr 15
Full

Hourly Weather History & Observations

Time (CDT) Temp. Windchill Dew Point Humidity Pressure Visibility Wind Dir Wind Speed Gust Speed Precip Events Conditions
12:53 AM 42.1 °F 40.2 °F 33.1 °F 70% 30.14 in 8.0 mi NNW 3.5 mph - N/A   Clear
1:53 AM 39.9 °F - 32.0 °F 73% 30.15 in 8.0 mi Calm Calm - N/A   Clear
2:53 AM 36.0 °F - 30.9 °F 82% 30.16 in 7.0 mi Calm Calm - N/A   Clear
3:53 AM 36.0 °F - 30.0 °F 79% 30.15 in 7.0 mi Calm Calm - N/A   Clear
4:53 AM 33.1 °F - 28.9 °F 85% 30.16 in 5.0 mi Calm Calm - N/A   Clear
5:53 AM 30.9 °F - 28.0 °F 89% 30.17 in 5.0 mi Calm Calm - N/A   Clear
6:48 AM 28.4 °F - 26.6 °F 93% 30.18 in 1.8 mi Calm Calm - N/A   Clear
6:53 AM 28.9 °F - 26.1 °F 89% 30.19 in 1.5 mi Calm Calm - N/A   Clear
7:00 AM 28.9 °F - 26.1 °F 89% 30.18 in 1.0 mi Calm Calm - N/A   Clear
7:14 AM 28.9 °F - 28.0 °F 96% 30.19 in 1.8 mi Calm Calm - N/A   Clear
7:22 AM 28.9 °F - 28.0 °F 96% 30.20 in 2.0 mi Calm Calm - N/A   Clear
7:42 AM 30.9 °F - 28.9 °F 92% 30.20 in 4.0 mi Calm Calm - N/A   Clear
7:53 AM 34.0 °F - 30.0 °F 85% 30.21 in 4.0 mi Calm Calm - N/A   Clear
8:53 AM 42.1 °F - 32.0 °F 67% 30.21 in 7.0 mi Calm Calm - N/A   Clear
9:53 AM 45.0 °F - 28.9 °F 53% 30.22 in 10.0 mi Calm Calm - N/A   Clear
10:53 AM 48.9 °F - 28.0 °F 44% 30.21 in 10.0 mi Variable 3.5 mph - N/A   Clear
11:53 AM 51.1 °F - 28.0 °F 41% 30.19 in 10.0 mi Variable 3.5 mph - N/A   Clear
12:53 PM 54.0 °F - 27.0 °F 35% 30.17 in 10.0 mi Calm Calm - N/A   Clear
1:53 PM 57.0 °F - 25.0 °F 29% 30.14 in 10.0 mi South 10.4 mph - N/A   Clear
2:53 PM 57.9 °F - 26.1 °F 30% 30.12 in 10.0 mi SSW 10.4 mph - N/A   Clear
3:53 PM 59.0 °F - 23.0 °F 25% 30.10 in 10.0 mi Variable 6.9 mph - N/A   Clear
4:53 PM 59.0 °F - 26.1 °F 28% 30.09 in 10.0 mi SW 11.5 mph - N/A   Clear
5:53 PM 57.9 °F - 25.0 °F 28% 30.09 in 10.0 mi SSW 10.4 mph - N/A   Clear
6:53 PM 55.9 °F - 26.1 °F 32% 30.08 in 10.0 mi SSW 8.1 mph - N/A   Clear
7:53 PM 51.1 °F - 27.0 °F 39% 30.08 in 10.0 mi South 5.8 mph - N/A   Clear
8:53 PM 46.0 °F - 28.9 °F 51% 30.09 in 10.0 mi Calm Calm - N/A   Clear
9:53 PM 46.0 °F 44.8 °F 28.0 °F 50% 30.09 in 10.0 mi South 3.5 mph - N/A   Clear
10:53 PM 42.1 °F - 28.9 °F 60% 30.09 in 10.0 mi Calm Calm - N/A   Clear
11:53 PM 41.0 °F - 28.0 °F 60% 30.09 in 10.0 mi Calm Calm - N/A   Clear